Timestamp (UTC),Height (m)
2024-04-28T20:45:00Z,3.58
2024-04-28T21:00:00Z,3.66
2024-04-28T21:15:00Z,3.65
2024-04-28T21:30:00Z,3.54
2024-04-28T21:45:00Z,3.38
2024-04-28T22:00:00Z,3.17
2024-04-28T22:15:00Z,2.94
2024-04-28T22:30:00Z,2.71
2024-04-28T22:45:00Z,2.50
2024-04-28T23:00:00Z,2.32
2024-04-28T23:15:00Z,2.15
2024-04-28T23:30:00Z,1.98
2024-04-28T23:45:00Z,1.79
2024-04-29T00:00:00Z,1.59
2024-04-29T00:15:00Z,1.39
2024-04-29T00:30:00Z,1.17
2024-04-29T00:45:00Z,0.97
2024-04-29T01:00:00Z,0.80
2024-04-29T01:15:00Z,0.65
2024-04-29T01:30:00Z,0.51
2024-04-29T01:45:00Z,0.38
2024-04-29T02:00:00Z,0.27
2024-04-29T02:15:00Z,0.16
2024-04-29T02:30:00Z,0.05
2024-04-29T02:45:00Z,-0.05
2024-04-29T03:00:00Z,-0.12
2024-04-29T03:15:00Z,-0.18
2024-04-29T03:30:00Z,-0.23
2024-04-29T03:45:00Z,-0.26
2024-04-29T04:00:00Z,-0.29
2024-04-29T04:15:00Z,-0.32
2024-04-29T04:30:00Z,-0.35
2024-04-29T04:45:00Z,-0.38
2024-04-29T05:00:00Z,-0.40
2024-04-29T05:15:00Z,-0.40
2024-04-29T05:30:00Z,-0.39
2024-04-29T05:45:00Z,-0.35
2024-04-29T06:00:00Z,-0.19
2024-04-29T06:15:00Z,0.06
2024-04-29T06:30:00Z,0.37
2024-04-29T06:45:00Z,0.69
2024-04-29T07:00:00Z,1.07
2024-04-29T07:15:00Z,1.46
2024-04-29T07:30:00Z,1.86
2024-04-29T07:45:00Z,2.21
2024-04-29T08:00:00Z,2.49
2024-04-29T08:15:00Z,2.73
2024-04-29T08:30:00Z,2.92
2024-04-29T08:45:00Z,3.08
2024-04-29T09:00:00Z,3.18
2024-04-29T09:15:00Z,3.22
2024-04-29T09:30:00Z,3.16
2024-04-29T09:45:00Z,3.06
2024-04-29T10:00:00Z,2.96
2024-04-29T10:15:00Z,2.84
2024-04-29T10:30:00Z,2.72
2024-04-29T10:45:00Z,2.59
2024-04-29T11:00:00Z,2.44
2024-04-29T11:15:00Z,2.28
2024-04-29T11:30:00Z,2.11
2024-04-29T11:45:00Z,1.91
2024-04-29T12:00:00Z,1.71
2024-04-29T12:15:00Z,1.53
2024-04-29T12:30:00Z,1.34
2024-04-29T12:45:00Z,1.14
2024-04-29T13:00:00Z,0.90
2024-04-29T13:15:00Z,0.67
2024-04-29T13:30:00Z,0.49
2024-04-29T13:45:00Z,0.35
2024-04-29T14:00:00Z,0.22
2024-04-29T14:15:00Z,0.10
2024-04-29T14:30:00Z,0.00
2024-04-29T14:45:00Z,-0.08
2024-04-29T15:00:00Z,-0.16
2024-04-29T15:15:00Z,-0.22
2024-04-29T15:30:00Z,-0.27
2024-04-29T15:45:00Z,-0.31
2024-04-29T16:00:00Z,-0.33
2024-04-29T16:15:00Z,-0.34
2024-04-29T16:30:00Z,-0.37
2024-04-29T16:45:00Z,-0.38
2024-04-29T17:00:00Z,-0.38
2024-04-29T17:15:00Z,-0.37
2024-04-29T17:30:00Z,-0.38
2024-04-29T17:45:00Z,-0.38
2024-04-29T18:00:00Z,-0.38
2024-04-29T18:15:00Z,-0.37
2024-04-29T18:30:00Z,-0.27
2024-04-29T18:45:00Z,-0.03
2024-04-29T19:00:00Z,0.28
2024-04-29T19:15:00Z,0.61
2024-04-29T19:30:00Z,0.98
2024-04-29T19:45:00Z,1.38
2024-04-29T20:00:00Z,1.77
2024-04-29T20:15:00Z,2.11
2024-04-29T20:30:00Z,2.40
2024-04-29T20:45:00Z,2.66
2024-04-29T21:00:00Z,2.88
2024-04-29T21:15:00Z,3.06
2024-04-29T21:30:00Z,3.23
2024-04-29T21:45:00Z,3.31
2024-04-29T22:00:00Z,3.31
2024-04-29T22:15:00Z,3.21
2024-04-29T22:30:00Z,3.09
2024-04-29T22:45:00Z,2.92
2024-04-29T23:00:00Z,2.74
2024-04-29T23:15:00Z,2.60
2024-04-29T23:30:00Z,2.49
2024-04-29T23:45:00Z,2.36
2024-04-30T00:00:00Z,2.20
2024-04-30T00:15:00Z,2.03
2024-04-30T00:30:00Z,1.85
2024-04-30T00:45:00Z,1.66
2024-04-30T01:00:00Z,1.48
2024-04-30T01:15:00Z,1.31
2024-04-30T01:30:00Z,1.11
2024-04-30T01:45:00Z,0.88
2024-04-30T02:00:00Z,0.68
2024-04-30T02:15:00Z,0.52
2024-04-30T02:30:00Z,0.39
2024-04-30T02:45:00Z,0.26
2024-04-30T03:00:00Z,0.14
2024-04-30T03:15:00Z,0.04
2024-04-30T03:30:00Z,-0.06
2024-04-30T03:45:00Z,-0.14
2024-04-30T04:00:00Z,-0.20
2024-04-30T04:15:00Z,-0.21
2024-04-30T04:30:00Z,-0.23
2024-04-30T04:45:00Z,-0.26
2024-04-30T05:00:00Z,-0.29
2024-04-30T05:15:00Z,-0.30
2024-04-30T05:30:00Z,-0.28
2024-04-30T05:45:00Z,-0.27
2024-04-30T06:00:00Z,-0.25
2024-04-30T06:15:00Z,-0.18
2024-04-30T06:30:00Z,-0.03
2024-04-30T06:45:00Z,0.20
2024-04-30T07:00:00Z,0.45
2024-04-30T07:15:00Z,0.70
2024-04-30T07:30:00Z,0.99
2024-04-30T07:45:00Z,1.28
2024-04-30T08:00:00Z,1.59
2024-04-30T08:15:00Z,1.90
2024-04-30T08:30:00Z,2.19
2024-04-30T08:45:00Z,2.45
2024-04-30T09:00:00Z,2.70
2024-04-30T09:15:00Z,2.92
2024-04-30T09:30:00Z,3.08
2024-04-30T09:45:00Z,3.21
2024-04-30T10:00:00Z,3.29
2024-04-30T10:15:00Z,3.26
2024-04-30T10:30:00Z,3.15
2024-04-30T10:45:00Z,3.00
2024-04-30T11:00:00Z,2.81
2024-04-30T11:15:00Z,2.63
2024-04-30T11:30:00Z,2.47
2024-04-30T11:45:00Z,2.32
2024-04-30T12:00:00Z,2.16
2024-04-30T12:15:00Z,1.99
2024-04-30T12:30:00Z,1.81
2024-04-30T12:45:00Z,1.64
2024-04-30T13:00:00Z,1.48
2024-04-30T13:15:00Z,1.32
2024-04-30T13:30:00Z,1.15
2024-04-30T13:45:00Z,0.94
2024-04-30T14:00:00Z,0.73
2024-04-30T14:15:00Z,0.56
2024-04-30T14:30:00Z,0.44
2024-04-30T14:45:00Z,0.32
2024-04-30T15:00:00Z,0.20
2024-04-30T15:15:00Z,0.09
2024-04-30T15:30:00Z,-0.03
2024-04-30T15:45:00Z,-0.10
2024-04-30T16:00:00Z,-0.16
2024-04-30T16:15:00Z,-0.20
2024-04-30T16:30:00Z,-0.25
2024-04-30T16:45:00Z,-0.29
2024-04-30T17:00:00Z,-0.30
2024-04-30T17:15:00Z,-0.31
2024-04-30T17:30:00Z,-0.34
2024-04-30T17:45:00Z,-0.37
2024-04-30T18:00:00Z,-0.38
2024-04-30T18:15:00Z,-0.37
2024-04-30T18:30:00Z,-0.36
2024-04-30T18:45:00Z,-0.35
2024-04-30T19:00:00Z,-0.24
2024-04-30T19:15:00Z,-0.03
2024-04-30T19:30:00Z,0.20
2024-04-30T19:45:00Z,0.46
2024-04-30T20:00:00Z,0.75
2024-04-30T20:15:00Z,1.04
2024-04-30T20:30:00Z,1.33
2024-04-30T20:45:00Z,1.64
2024-04-30T21:00:00Z,1.94
2024-04-30T21:15:00Z,2.18
2024-04-30T21:30:00Z,2.39
2024-04-30T21:45:00Z,2.60
2024-04-30T22:00:00Z,2.77
2024-04-30T22:15:00Z,2.89
2024-04-30T22:30:00Z,2.97
2024-04-30T22:45:00Z,3.02
2024-04-30T23:00:00Z,2.97
2024-04-30T23:15:00Z,2.85
2024-04-30T23:30:00Z,2.73
2024-04-30T23:45:00Z,2.63
2024-05-01T00:00:00Z,2.52
2024-05-01T00:15:00Z,2.41
2024-05-01T00:30:00Z,2.31
2024-05-01T00:45:00Z,2.20
2024-05-01T01:00:00Z,2.05
2024-05-01T01:15:00Z,1.89
2024-05-01T01:30:00Z,1.69
2024-05-01T01:45:00Z,1.50
2024-05-01T02:00:00Z,1.32
2024-05-01T02:15:00Z,1.17
2024-05-01T02:30:00Z,1.01
2024-05-01T02:45:00Z,0.88
2024-05-01T03:00:00Z,0.73
2024-05-01T03:15:00Z,0.59
2024-05-01T03:30:00Z,0.47
2024-05-01T03:45:00Z,0.36
2024-05-01T04:00:00Z,0.25
2024-05-01T04:15:00Z,0.14
2024-05-01T04:30:00Z,0.04
2024-05-01T04:45:00Z,-0.02
2024-05-01T05:00:00Z,-0.06
2024-05-01T05:15:00Z,-0.12
2024-05-01T05:30:00Z,-0.18
2024-05-01T05:45:00Z,-0.21
2024-05-01T06:00:00Z,-0.21
2024-05-01T06:15:00Z,-0.21
2024-05-01T06:30:00Z,-0.20
2024-05-01T06:45:00Z,-0.12
2024-05-01T07:00:00Z,-0.01
2024-05-01T07:15:00Z,0.12
2024-05-01T07:30:00Z,0.25
2024-05-01T07:45:00Z,0.43
2024-05-01T08:00:00Z,0.61
2024-05-01T08:15:00Z,0.83
2024-05-01T08:30:00Z,1.10
2024-05-01T08:45:00Z,1.37
2024-05-01T09:00:00Z,1.65
2024-05-01T09:15:00Z,1.93
2024-05-01T09:30:00Z,2.19
2024-05-01T09:45:00Z,2.42
2024-05-01T10:00:00Z,2.62
2024-05-01T10:15:00Z,2.82
2024-05-01T10:30:00Z,2.97
2024-05-01T10:45:00Z,3.06
2024-05-01T11:00:00Z,3.08
2024-05-01T11:15:00Z,3.02
2024-05-01T11:30:00Z,2.89
2024-05-01T11:45:00Z,2.78
2024-05-01T12:00:00Z,2.65
2024-05-01T12:15:00Z,2.53
2024-05-01T12:30:00Z,2.44
2024-05-01T12:45:00Z,2.33
2024-05-01T13:00:00Z,2.19
2024-05-01T13:15:00Z,2.03
2024-05-01T13:30:00Z,1.85
2024-05-01T13:45:00Z,1.66
2024-05-01T14:00:00Z,1.47
2024-05-01T14:15:00Z,1.32
2024-05-01T14:30:00Z,1.18
2024-05-01T14:45:00Z,1.04
2024-05-01T15:00:00Z,0.89
2024-05-01T15:15:00Z,0.74
2024-05-01T15:30:00Z,0.59
2024-05-01T15:45:00Z,0.47
2024-05-01T16:00:00Z,0.36
2024-05-01T16:15:00Z,0.25
2024-05-01T16:30:00Z,0.14
2024-05-01T16:45:00Z,0.05
2024-05-01T17:00:00Z,-0.04
2024-05-01T17:15:00Z,-0.12
2024-05-01T17:30:00Z,-0.18
2024-05-01T17:45:00Z,-0.26
2024-05-01T18:00:00Z,-0.32
2024-05-01T18:15:00Z,-0.37
2024-05-01T18:30:00Z,-0.40
2024-05-01T18:45:00Z,-0.42
2024-05-01T19:00:00Z,-0.42
2024-05-01T19:15:00Z,-0.41
2024-05-01T19:30:00Z,-0.37
2024-05-01T19:45:00Z,-0.30
2024-05-01T20:00:00Z,-0.17
2024-05-01T20:15:00Z,0.00
2024-05-01T20:30:00Z,0.17
2024-05-01T20:45:00Z,0.36
2024-05-01T21:00:00Z,0.57
2024-05-01T21:15:00Z,0.83
2024-05-01T21:30:00Z,1.09
2024-05-01T21:45:00Z,1.34
2024-05-01T22:00:00Z,1.59
2024-05-01T22:15:00Z,1.82
2024-05-01T22:30:00Z,2.04
2024-05-01T22:45:00Z,2.26
2024-05-01T23:00:00Z,2.45
2024-05-01T23:15:00Z,2.60
2024-05-01T23:30:00Z,2.71
2024-05-01T23:45:00Z,2.76
2024-05-02T00:00:00Z,2.80
2024-05-02T00:15:00Z,2.85
2024-05-02T00:30:00Z,2.91
2024-05-02T00:45:00Z,2.89
2024-05-02T01:00:00Z,2.83
2024-05-02T01:15:00Z,2.75
2024-05-02T01:30:00Z,2.68
2024-05-02T01:45:00Z,2.60
2024-05-02T02:00:00Z,2.52
2024-05-02T02:15:00Z,2.42
2024-05-02T02:30:00Z,2.26
2024-05-02T02:45:00Z,2.06
2024-05-02T03:00:00Z,1.88
2024-05-02T03:15:00Z,1.70
2024-05-02T03:30:00Z,1.53
2024-05-02T03:45:00Z,1.35
2024-05-02T04:00:00Z,1.18
2024-05-02T04:15:00Z,1.01
2024-05-02T04:30:00Z,0.86
2024-05-02T04:45:00Z,0.72
2024-05-02T05:00:00Z,0.58
2024-05-02T05:15:00Z,0.45
2024-05-02T05:30:00Z,0.34
2024-05-02T05:45:00Z,0.23
2024-05-02T06:00:00Z,0.14
2024-05-02T06:15:00Z,0.07
2024-05-02T06:30:00Z,0.03
2024-05-02T06:45:00Z,0.01
2024-05-02T07:00:00Z,0.03
2024-05-02T07:15:00Z,0.07
2024-05-02T07:30:00Z,0.10
2024-05-02T07:45:00Z,0.14
2024-05-02T08:00:00Z,0.22
2024-05-02T08:15:00Z,0.28
2024-05-02T08:30:00Z,0.39
2024-05-02T08:45:00Z,0.50
2024-05-02T09:00:00Z,0.67
2024-05-02T09:15:00Z,0.84
2024-05-02T09:30:00Z,1.06
2024-05-02T09:45:00Z,1.29
2024-05-02T10:00:00Z,1.54
2024-05-02T10:15:00Z,1.79
2024-05-02T10:30:00Z,2.03
2024-05-02T10:45:00Z,2.26
2024-05-02T11:00:00Z,2.48
2024-05-02T11:15:00Z,2.66
2024-05-02T11:30:00Z,2.81
2024-05-02T11:45:00Z,2.92
2024-05-02T12:00:00Z,3.01
2024-05-02T12:15:00Z,3.02
2024-05-02T12:30:00Z,2.99
2024-05-02T12:45:00Z,2.92
2024-05-02T13:00:00Z,2.81
2024-05-02T13:15:00Z,2.65
2024-05-02T13:30:00Z,2.52
2024-05-02T13:45:00Z,2.41
2024-05-02T14:00:00Z,2.30
2024-05-02T14:15:00Z,2.18
2024-05-02T14:30:00Z,2.03
2024-05-02T14:45:00Z,1.86
2024-05-02T15:00:00Z,1.70
2024-05-02T15:15:00Z,1.56
2024-05-02T15:30:00Z,1.42
2024-05-02T15:45:00Z,1.28
2024-05-02T16:00:00Z,1.13
2024-05-02T16:15:00Z,0.98
2024-05-02T16:30:00Z,0.83
2024-05-02T16:45:00Z,0.70
2024-05-02T17:00:00Z,0.56
2024-05-02T17:15:00Z,0.42
2024-05-02T17:30:00Z,0.29
2024-05-02T17:45:00Z,0.17
2024-05-02T18:00:00Z,0.07
2024-05-02T18:15:00Z,-0.03
2024-05-02T18:30:00Z,-0.12
2024-05-02T18:45:00Z,-0.19
2024-05-02T19:00:00Z,-0.26
2024-05-02T19:15:00Z,-0.32
2024-05-02T19:30:00Z,-0.37
2024-05-02T19:45:00Z,-0.41
2024-05-02T20:00:00Z,-0.46
2024-05-02T20:15:00Z,-0.49
2024-05-02T20:30:00Z,-0.51
2024-05-02T20:45:00Z,-0.51
2024-05-02T21:00:00Z,-0.48
2024-05-02T21:15:00Z,-0.39
2024-05-02T21:30:00Z,-0.28
2024-05-02T21:45:00Z,-0.16
2024-05-02T22:00:00Z,-0.01
2024-05-02T22:15:00Z,0.15
2024-05-02T22:30:00Z,0.36
2024-05-02T22:45:00Z,0.58
2024-05-02T23:00:00Z,0.83
2024-05-02T23:15:00Z,1.11
2024-05-02T23:30:00Z,1.37
2024-05-02T23:45:00Z,1.63
2024-05-03T00:00:00Z,1.87
2024-05-03T00:15:00Z,2.09
2024-05-03T00:30:00Z,2.29
2024-05-03T00:45:00Z,2.46
2024-05-03T01:00:00Z,2.61
2024-05-03T01:15:00Z,2.74
2024-05-03T01:30:00Z,2.85
2024-05-03T01:45:00Z,2.93
2024-05-03T02:00:00Z,2.97
2024-05-03T02:15:00Z,2.95
2024-05-03T02:30:00Z,2.89
2024-05-03T02:45:00Z,2.77
2024-05-03T03:00:00Z,2.61
2024-05-03T03:15:00Z,2.46
2024-05-03T03:30:00Z,2.33
2024-05-03T03:45:00Z,2.19
2024-05-03T04:00:00Z,2.02
2024-05-03T04:15:00Z,1.84
2024-05-03T04:30:00Z,1.66
2024-05-03T04:45:00Z,1.48
2024-05-03T05:00:00Z,1.33
2024-05-03T05:15:00Z,1.16
2024-05-03T05:30:00Z,0.99
2024-05-03T05:45:00Z,0.84
2024-05-03T06:00:00Z,0.69
2024-05-03T06:15:00Z,0.56
2024-05-03T06:30:00Z,0.44
2024-05-03T06:45:00Z,0.33
2024-05-03T07:00:00Z,0.22
2024-05-03T07:15:00Z,0.11
2024-05-03T07:30:00Z,0.03
2024-05-03T07:45:00Z,-0.05
2024-05-03T08:00:00Z,-0.12
2024-05-03T08:15:00Z,-0.18
2024-05-03T08:30:00Z,-0.20